When you browse on this site, cookies collect data to enhance your experience and personalize the content and advertising you see.
Visit our Privacy Policy to learn more. By continuing to use the site, you agree to this use of cookies and data.
  • In Hungary
  • List of Countries
  • For 7 days
  • Water Temperature
  • Satellite Maps
  • Weather Map
  • News
  • Weather Widgets
  • user-avatar
    Login

    Hourly Weather Kitzbuhel

    Today, 10 December, Monday

    Time Temperature Precipitation Wind Pressure Humidity
    00:00 +1°C° 1.8 mm 3 mps 671 mmHg 94%
    01:00 +1°C° 0 mm 3 mps 672 mmHg 94%
    02:00 0°C° 1.5 mm 3 mps 672 mmHg 94%
    03:00 0°C° 1.5 mm 3 mps 672 mmHg 93%
    04:00 -1°C° 1.5 mm 4 mps 673 mmHg 93%
    05:00 -1°C° 1.2 mm 4 mps 673 mmHg 92%
    06:00 -2°C° 1.2 mm 4 mps 674 mmHg 92%
    07:00 -2°C° 0 mm 4 mps 674 mmHg 93%
    08:00 -2°C° 1.2 mm 4 mps 674 mmHg 92%
    09:00 -2°C° 1.2 mm 4 mps 675 mmHg 91%
    10:00 -2°C° 1.2 mm 4 mps 675 mmHg 91%
    11:00 -2°C° 1.1 mm 4 mps 675 mmHg 91%
    12:00 -2°C° 1.1 mm 4 mps 675 mmHg 91%
    13:00 -2°C° 1.1 mm 4 mps 675 mmHg 90%
    14:00 -2°C° 0.8 mm 3 mps 675 mmHg 91%
    15:00 -2°C° 0.8 mm 3 mps 675 mmHg 92%
    16:00 -2°C° 0.8 mm 3 mps 675 mmHg 93%
    17:00 -2°C° 0.8 mm 3 mps 675 mmHg 93%
    18:00 -2°C° 0.8 mm 3 mps 675 mmHg 94%
    19:00 -3°C° 0.8 mm 2 mps 675 mmHg 94%
    20:00 -4°C° 1.3 mm 3 mps 675 mmHg 95%
    21:00 -4°C° 1.3 mm 3 mps 675 mmHg 95%
    22:00 -4°C° 1.3 mm 3 mps 675 mmHg 96%
    23:00 -4°C° 1.5 mm 3 mps 675 mmHg 96%

    Tomorrow, 11 December, Tuesday

    Time Temperature Precipitation Wind Pressure Humidity
    00:00 -4°C° 1.5 mm 3 mps 675 mmHg 96%
    01:00 -4°C° 1.5 mm 3 mps 676 mmHg 96%
    02:00 -5°C° 0.5 mm 3 mps 676 mmHg 95%
    03:00 -5°C° 0.5 mm 3 mps 676 mmHg 95%
    04:00 -5°C° 0.5 mm 3 mps 676 mmHg 94%
    05:00 -6°C° 0.6 mm 3 mps 676 mmHg 94%
    06:00 -6°C° 0.6 mm 3 mps 676 mmHg 94%
    07:00 -6°C° 0.6 mm 3 mps 676 mmHg 94%
    08:00 -6°C° 0.5 mm 3 mps 676 mmHg 93%
    09:00 -5°C° 0.5 mm 3 mps 676 mmHg 92%
    10:00 -5°C° 0.5 mm 3 mps 677 mmHg 92%
    11:00 -5°C° 0.4 mm 3 mps 676 mmHg 91%
    12:00 -4°C° 0.4 mm 3 mps 676 mmHg 90%
    13:00 -4°C° 0.4 mm 3 mps 676 mmHg 89%
    14:00 -4°C° 0.3 mm 3 mps 676 mmHg 90%
    15:00 -5°C° 0.3 mm 3 mps 676 mmHg 91%
    16:00 -4°C° 0.3 mm 2 mps 676 mmHg 92%
    17:00 -5°C° 0.2 mm 2 mps 676 mmHg 92%
    18:00 -5°C° 0.2 mm 2 mps 676 mmHg 92%
    19:00 -6°C° 0.2 mm 2 mps 676 mmHg 92%
    20:00 -6°C° 0.1 mm 2 mps 676 mmHg 92%
    21:00 -7°C° 0.1 mm 2 mps 676 mmHg 91%
    22:00 -7°C° 0.1 mm 2 mps 676 mmHg 91%
    23:00 -8°C° 0.1 mm 2 mps 676 mmHg 90%

    Day after tomorrow, 12 December, Wednesday

    Time Temperature Precipitation Wind Pressure Humidity
    00:00 -8°C° 0.1 mm 2 mps 676 mmHg 90%
    01:00 -8°C° 0.1 mm 2 mps 676 mmHg 89%
    02:00 -9°C° 0.1 mm 2 mps 676 mmHg 89%
    03:00 -9°C° 0.1 mm 2 mps 676 mmHg 89%
    04:00 -9°C° 0.1 mm 2 mps 676 mmHg 88%
    05:00 -9°C° 0.1 mm 2 mps 676 mmHg 88%
    06:00 -9°C° 0.1 mm 2 mps 676 mmHg 88%
    07:00 -10°C° 0.1 mm 2 mps 676 mmHg 88%
    08:00 -8°C° 0.1 mm 2 mps 676 mmHg 87%
    09:00 -7°C° 0.1 mm 2 mps 676 mmHg 87%
    10:00 -4°C° 0.1 mm 1 mps 676 mmHg 87%
    11:00 -3°C° 0 mm 1 mps 676 mmHg 85%
    12:00 -2°C° 0 mm 1 mps 675 mmHg 83%
    13:00 -1°C° 0 mm 1 mps 675 mmHg 82%
    14:00 -2°C° 0 mm 1 mps 675 mmHg 86%
    15:00 -3°C° 0 mm 1 mps 674 mmHg 89%
    16:00 -5°C° 0 mm 0 mps 674 mmHg 93%
    17:00 -6°C° 0 mm 1 mps 674 mmHg 93%
    18:00 -7°C° 0 mm 1 mps 674 mmHg 93%
    19:00 -8°C° 0 mm 1 mps 674 mmHg 92%
    20:00 -8°C° 0 mm 1 mps 674 mmHg 91%
    21:00 -9°C° 0 mm 1 mps 674 mmHg 89%
    22:00 -9°C° 0 mm 1 mps 674 mmHg 88%
    23:00 -9°C° 0 mm 1 mps 674 mmHg 87%

    13 December, Thursday

    Time Temperature Precipitation Wind Pressure Humidity
    00:00 -10°C° 0 mm 1 mps 673 mmHg 86%
    01:00 -10°C° 0 mm 1 mps 673 mmHg 85%
    02:00 -10°C° 0 mm 1 mps 673 mmHg 84%
    03:00 -10°C° 0 mm 1 mps 673 mmHg 83%
    04:00 -11°C° 0 mm 1 mps 672 mmHg 82%
    05:00 -11°C° 0 mm 1 mps 672 mmHg 81%
    06:00 -11°C° 0 mm 1 mps 672 mmHg 80%
    07:00 -11°C° 0 mm 1 mps 672 mmHg 79%
    08:00 -9°C° 0 mm 1 mps 672 mmHg 79%
    09:00 -8°C° 0 mm 1 mps 672 mmHg 79%
    10:00 -6°C° 0 mm 1 mps 672 mmHg 79%
    11:00 -4°C° 0 mm 1 mps 672 mmHg 78%
    12:00 -2°C° 0 mm 1 mps 672 mmHg 77%
    13:00 -1°C° 0 mm 1 mps 671 mmHg 76%
    14:00 -2°C° 0 mm 1 mps 671 mmHg 79%
    15:00 -3°C° 0 mm 1 mps 671 mmHg 82%
    16:00 -6°C° 0 mm 1 mps 670 mmHg 85%
    17:00 -8°C° 0 mm 2 mps 670 mmHg 83%
    18:00 -8°C° 0 mm 2 mps 671 mmHg 80%
    19:00 -9°C° 0 mm 2 mps 671 mmHg 77%
    20:00 -9°C° 0 mm 2 mps 671 mmHg 76%
    21:00 -9°C° 0 mm 2 mps 671 mmHg 75%
    22:00 -9°C° 0 mm 2 mps 671 mmHg 73%
    23:00 -9°C° 0 mm 2 mps 671 mmHg 73%

    14 December, Friday

    Time Temperature Precipitation Wind Pressure Humidity
    00:00 -9°C° 0 mm 2 mps 671 mmHg 73%
    01:00 -9°C° 0 mm 2 mps 671 mmHg 73%
    02:00 -8°C° 0 mm 2 mps 672 mmHg 73%
    03:00 -6°C° 0 mm 1 mps 672 mmHg 74%
    04:00 -6°C° 0 mm 1 mps 672 mmHg 74%
    05:00 -6°C° 0 mm 1 mps 673 mmHg 74%
    06:00 -4°C° 0 mm 1 mps 673 mmHg 74%
    07:00 -4°C° 0 mm 1 mps 673 mmHg 73%
    08:00 -3°C° 0 mm 1 mps 674 mmHg 74%
    09:00 -2°C° 0 mm 1 mps 675 mmHg 74%
    10:00 0°C° 0 mm 1 mps 676 mmHg 74%
    11:00 0°C° 0 mm 1 mps 676 mmHg 76%
    12:00 0°C° 0 mm 0 mps 676 mmHg 78%
    13:00 +1°C° 0 mm 0 mps 676 mmHg 80%
    14:00 0°C° 0 mm 0 mps 677 mmHg 81%
    15:00 -1°C° 0 mm 0 mps 677 mmHg 83%
    16:00 -2°C° 0 mm 0 mps 677 mmHg 85%
    17:00 -1°C° 0 mm 1 mps 678 mmHg 84%
    18:00 -2°C° 0 mm 1 mps 678 mmHg 83%
    19:00 -2°C° 0 mm 1 mps 679 mmHg 83%
    20:00 -2°C° 0 mm 1 mps 679 mmHg 81%
    21:00 -2°C° 0 mm 1 mps 680 mmHg 80%
    22:00 -2°C° 0 mm 1 mps 680 mmHg 79%
    23:00 -3°C° 0 mm 1 mps 680 mmHg 78%

    15 December, Saturday

    Time Temperature Precipitation Wind Pressure Humidity
    00:00 -3°C° 0 mm 1 mps 680 mmHg 77%
    01:00 -3°C° 0 mm 1 mps 680 mmHg 77%
    02:00 -3°C° 0 mm 1 mps 681 mmHg 77%
    03:00 -4°C° 0 mm 1 mps 681 mmHg 78%
    04:00 -4°C° 0 mm 1 mps 681 mmHg 78%
    05:00 -5°C° 0 mm 2 mps 681 mmHg 80%
    06:00 -5°C° 0 mm 2 mps 682 mmHg 81%
    07:00 -5°C° 0 mm 2 mps 682 mmHg 83%
    08:00 -2°C° 0 mm 1 mps 682 mmHg 83%
    09:00 -1°C° 0 mm 1 mps 683 mmHg 84%
    10:00 0°C° 0 mm 1 mps 683 mmHg 84%
    11:00 +1°C° 0 mm 1 mps 683 mmHg 86%
    12:00 +1°C° 0 mm 0 mps 682 mmHg 87%
    13:00 +2°C° 0 mm 0 mps 682 mmHg 88%
    14:00 +1°C° 0 mm 0 mps 682 mmHg 88%
    15:00 0°C° 0 mm 0 mps 682 mmHg 87%
    16:00 -1°C° 0 mm 0 mps 681 mmHg 86%
    17:00 -1°C° 0 mm 1 mps 682 mmHg 84%
    18:00 -1°C° 0 mm 1 mps 682 mmHg 81%
    19:00 -2°C° 0 mm 1 mps 682 mmHg 79%
    20:00 -2°C° 0 mm 1 mps 682 mmHg 76%
    21:00 -2°C° 0 mm 1 mps 682 mmHg 74%
    22:00 -2°C° 0 mm 1 mps 682 mmHg 71%
    23:00 -1°C° 0 mm 1 mps 682 mmHg 70%
    Show more